Weather in Karmanovo

Russia / Republic of Bashkortostan     56°13′54″N   54°32′22″E
temp.,
°C
wind,
m/s
gust,
m/s
humid.,
%
clouds,
%
prec.,
mm/h
press.,
hPa
HPBL,
m
3 march, wed
wed323:000wsw61197100 2.3 997693
02:00−3wsw41096100 0.3 996402
05:00−3wsw499699 0.6 997397
08:00−5wsw3597100 0.4 997146
11:00−3w369599 0.8 999360
14:00−2wsw469498 0.2 998471
17:00−2sw479699 0.6 999479
20:00−4sw3996100 0.4 998343
4 march, thu
thu423:00−4wnw51195100 1.3 1000608
02:00−8wnw51192100 0.3 999392
05:00−12w499694 0.4 1000225
08:00−13sw389790 0.0 1000179
11:00−9sw599495 0.6 1000493
14:00−5sw5992100 0.6 998627
17:00−4ssw61192100 0.8 996763
20:00−3ssw71395100 1.4 993853
5 march, fri
fri523:00−3w71487100 3.1 993867
02:00−6wsw5139192 0.0 994513
05:00−7wsw5109496 0.1 997501
08:00−8wsw4796100 0.1 999200
11:00−7wsw3496100 0.1 1000245
14:00−4wsw2390100 0.0 1000414
17:00−4w1292100 0.1 1000299
20:00−6nw3695100 0.2 1001205
6 march, sat
sat623:00−10nw4993100 0.2 1004291
02:00−17wnw36961 0.0 100899
05:00−19w239919 0.0 101128
08:00−21w239973 0.0 101220
11:00−16w239359 0.0 1013218
14:00−11wsw238684 0.0 1012408
17:00−11sw239183 0.0 1010315
20:00−16sw229614 0.0 101020
7 march, sun
sun723:00−17sw239827 0.0 101031
02:00−16sw259792 0.1 1009114
05:00−16wsw239791 0.3 101090
08:00−19w229996 0.1 101122
11:00−16wsw249153 0.1 1011235
14:00−13sw36898 0.0 1012436
17:00−12ssw479241 0.0 1011447
20:00−15s399598 0.0 1011217